OHY301 LGAV-LTBA

Flight info

Callsign OHY301
Flight time 0h 54m
Altitude 31000
Route KRO UN604 BIG/N0405F270 G8 IST
Aircraft A321/M-SDE3FGHIRWY/LB1

Departure

Time 2026-04-23 12:08
Airport Athens Eleftherios Venizelos International Airport (LGAV)

Arrival

Time 2026-04-23 13:02
Airport İstanbul Atatürk Airport (LTBA)
Time Latitude Longitude Altitude Speed Heading
2026-04-23 11:59 37.93140 23.94555 320 ft 0 kts 217°
2026-04-23 12:01 37.93139 23.94555 320 ft 0 kts 217°
2026-04-23 12:02 37.93143 23.94558 320 ft 2 kts 217°
2026-04-23 12:02 37.93156 23.94570 320 ft 3 kts 217°
2026-04-23 12:03 37.93170 23.94584 320 ft 3 kts 217°
2026-04-23 12:03 37.93187 23.94600 320 ft 3 kts 217°
2026-04-23 12:03 37.93148 23.94604 319 ft 17 kts 153°
2026-04-23 12:03 37.93028 23.94585 320 ft 26 kts 219°
2026-04-23 12:04 37.92912 23.94477 320 ft 35 kts 211°
2026-04-23 12:04 37.92795 23.94412 320 ft 48 kts 205°
2026-04-23 12:04 37.92551 23.94200 320 ft 47 kts 215°
2026-04-23 12:04 37.92492 23.94153 320 ft 0 kts 202°
2026-04-23 12:05 37.92498 23.94156 320 ft 2 kts 202°
2026-04-23 12:05 37.92484 23.94160 320 ft 12 kts 150°
2026-04-23 12:05 37.92430 23.94264 320 ft 13 kts 107°
2026-04-23 12:06 37.92426 23.94280 320 ft 2 kts 112°
2026-04-23 12:06 37.92416 23.94300 320 ft 7 kts 121°
2026-04-23 12:06 37.92536 23.94498 320 ft 25 kts 36°
2026-04-23 12:07 37.92672 23.94624 320 ft 11 kts 36°
2026-04-23 12:07 37.92857 23.94811 320 ft 72 kts 36°
2026-04-23 12:07 37.93416 23.95334 320 ft 138 kts 37°
2026-04-23 12:07 37.94321 23.96199 404 ft 183 kts 37°
2026-04-23 12:08 37.95388 23.97304 847 ft 208 kts 44°
2026-04-23 12:08 37.96376 23.98766 1455 ft 236 kts 47°
2026-04-23 12:08 37.97705 24.00214 1968 ft 269 kts 38°
2026-04-23 12:08 37.99286 24.01679 2454 ft 296 kts 36°
2026-04-23 12:09 38.00931 24.03150 2883 ft 280 kts 35°
2026-04-23 12:09 38.02490 24.04548 3316 ft 268 kts 35°
2026-04-23 12:09 38.03990 24.05919 3759 ft 264 kts 36°
2026-04-23 12:09 38.05438 24.07278 4202 ft 262 kts 36°
2026-04-23 12:10 38.06888 24.08669 4650 ft 260 kts 36°
2026-04-23 12:10 38.08292 24.10097 5084 ft 262 kts 40°
2026-04-23 12:10 38.09217 24.12112 5496 ft 271 kts 71°
2026-04-23 12:10 38.09292 24.14528 5988 ft 278 kts 94°
2026-04-23 12:11 38.08907 24.16935 6449 ft 284 kts 105°
2026-04-23 12:11 38.08367 24.19132 6865 ft 286 kts 110°
2026-04-23 12:11 38.07683 24.21516 7317 ft 288 kts 112°
2026-04-23 12:11 38.06961 24.23902 7743 ft 292 kts 112°
2026-04-23 12:12 38.06233 24.26280 8169 ft 292 kts 112°
2026-04-23 12:12 38.05739 24.27900 8471 ft 293 kts 112°
2026-04-23 12:12 38.05071 24.30112 8883 ft 295 kts 112°
2026-04-23 12:12 38.04353 24.32517 9328 ft 296 kts 112°
2026-04-23 12:13 38.03628 24.34974 9779 ft 298 kts 112°
2026-04-23 12:13 38.02898 24.37465 10233 ft 300 kts 112°
2026-04-23 12:13 38.02173 24.39956 10684 ft 302 kts 111°
2026-04-23 12:13 38.01448 24.42453 11133 ft 304 kts 111°
2026-04-23 12:14 38.00734 24.44969 11579 ft 307 kts 109°
2026-04-23 12:14 38.00534 24.47653 11999 ft 309 kts 83°
2026-04-23 12:14 38.01038 24.50091 12445 ft 311 kts 68°
2026-04-23 12:14 38.01803 24.52155 12830 ft 313 kts 60°
2026-04-23 12:15 38.02596 24.53830 13153 ft 313 kts 55°
2026-04-23 12:15 38.03849 24.56105 13609 ft 314 kts 51°
2026-04-23 12:15 38.05169 24.58270 14055 ft 315 kts 49°
2026-04-23 12:15 38.06559 24.60433 14507 ft 316 kts 47°
2026-04-23 12:16 38.07985 24.62599 14962 ft 318 kts 47°
2026-04-23 12:16 38.09415 24.64747 15413 ft 319 kts 47°
2026-04-23 12:16 38.10848 24.66899 15862 ft 321 kts 47°
2026-04-23 12:16 38.12288 24.69065 16311 ft 323 kts 47°
2026-04-23 12:17 38.13750 24.71275 16765 ft 325 kts 47°
2026-04-23 12:17 38.15209 24.73491 17217 ft 327 kts 47°
2026-04-23 12:17 38.16658 24.75697 17664 ft 330 kts 47°
2026-04-23 12:17 38.18150 24.77972 18122 ft 332 kts 47°
2026-04-23 12:18 38.19627 24.80228 18571 ft 335 kts 47°
2026-04-23 12:18 38.21117 24.82507 19022 ft 337 kts 47°
2026-04-23 12:18 38.22621 24.84809 19473 ft 339 kts 47°
2026-04-23 12:18 38.24131 24.87123 19923 ft 342 kts 47°
2026-04-23 12:19 38.25656 24.89461 20375 ft 344 kts 47°
2026-04-23 12:19 38.27185 24.91807 20825 ft 346 kts 47°
2026-04-23 12:19 38.28736 24.94189 21279 ft 349 kts 47°
2026-04-23 12:19 38.30273 24.96552 21727 ft 351 kts 47°
2026-04-23 12:20 38.31848 24.98975 22182 ft 353 kts 47°
2026-04-23 12:20 38.33420 25.01395 22633 ft 356 kts 47°
2026-04-23 12:20 38.34999 25.03828 23083 ft 358 kts 47°
2026-04-23 12:20 38.36587 25.06278 23533 ft 361 kts 48°
2026-04-23 12:21 38.38199 25.08767 23987 ft 363 kts 48°
2026-04-23 12:21 38.39806 25.11246 24436 ft 366 kts 48°
2026-04-23 12:21 38.41441 25.13769 24890 ft 368 kts 48°
2026-04-23 12:21 38.43069 25.16283 25339 ft 370 kts 48°
2026-04-23 12:22 38.44717 25.18828 25790 ft 373 kts 48°
2026-04-23 12:22 38.46385 25.21407 26245 ft 375 kts 48°
2026-04-23 12:22 38.48039 25.23966 26693 ft 376 kts 48°
2026-04-23 12:22 38.49695 25.26531 27140 ft 377 kts 48°
2026-04-23 12:23 38.51345 25.29090 27584 ft 378 kts 48°
2026-04-23 12:23 38.53029 25.31705 28036 ft 378 kts 48°
2026-04-23 12:23 38.54694 25.34294 28483 ft 377 kts 48°
2026-04-23 12:23 38.56369 25.36900 28934 ft 376 kts 48°
2026-04-23 12:24 38.58007 25.39451 29375 ft 374 kts 48°
2026-04-23 12:24 38.59656 25.42021 29821 ft 372 kts 48°
2026-04-23 12:24 38.61286 25.44565 30264 ft 368 kts 48°
2026-04-23 12:24 38.62908 25.47099 30709 ft 363 kts 48°
2026-04-23 12:25 38.64501 25.49588 30909 ft 367 kts 48°
2026-04-23 12:25 38.66151 25.52163 30983 ft 375 kts 48°
2026-04-23 12:25 38.69536 25.57448 31003 ft 391 kts 48°
2026-04-23 12:26 38.73003 25.62874 31000 ft 399 kts 48°
2026-04-23 12:26 38.76515 25.68388 30997 ft 402 kts 48°
2026-04-23 12:27 38.79481 25.73056 30996 ft 402 kts 49°
2026-04-23 12:27 38.82869 25.78397 30996 ft 402 kts 49°
2026-04-23 12:28 38.86348 25.83891 30996 ft 402 kts 49°
2026-04-23 12:28 38.89877 25.89472 30996 ft 402 kts 49°
2026-04-23 12:29 38.93390 25.95039 30996 ft 402 kts 49°
2026-04-23 12:29 38.96877 26.00575 30996 ft 402 kts 49°
2026-04-23 12:30 39.00408 26.06183 30996 ft 402 kts 49°
2026-04-23 12:30 39.03902 26.11737 30996 ft 402 kts 49°
2026-04-23 12:31 39.07411 26.17328 30996 ft 402 kts 49°
2026-04-23 12:31 39.10917 26.22925 30996 ft 402 kts 49°
2026-04-23 12:32 39.14402 26.28500 30996 ft 402 kts 49°
2026-04-23 12:32 39.17771 26.33902 30996 ft 402 kts 49°
2026-04-23 12:33 39.21315 26.39482 30995 ft 400 kts 45°
2026-04-23 12:33 39.25456 26.44161 30998 ft 396 kts 33°
2026-04-23 12:34 39.30075 26.47961 30997 ft 395 kts 27°
2026-04-23 12:34 39.34738 26.51698 30996 ft 395 kts 30°
2026-04-23 12:35 39.39341 26.55595 30996 ft 396 kts 31°
2026-04-23 12:35 39.43917 26.59586 30996 ft 396 kts 31°
2026-04-23 12:36 39.48447 26.63602 30996 ft 396 kts 31°
2026-04-23 12:36 39.52972 26.67649 30996 ft 396 kts 32°
2026-04-23 12:37 39.57483 26.71705 30996 ft 396 kts 32°
2026-04-23 12:37 39.61994 26.75774 30996 ft 396 kts 32°
2026-04-23 12:38 39.66517 26.79864 30996 ft 396 kts 32°
2026-04-23 12:38 39.71048 26.83969 30996 ft 396 kts 32°
2026-04-23 12:39 39.75539 26.88046 30996 ft 396 kts 32°
2026-04-23 12:39 39.80066 26.92156 30996 ft 396 kts 32°
2026-04-23 12:40 39.84473 26.96165 30996 ft 396 kts 32°
2026-04-23 12:40 39.89017 27.00305 30996 ft 396 kts 32°
2026-04-23 12:41 39.93534 27.04428 30996 ft 396 kts 32°
2026-04-23 12:41 39.98028 27.08539 30996 ft 396 kts 32°
2026-04-23 12:42 40.02339 27.12489 30990 ft 397 kts 32°
2026-04-23 12:42 40.04631 27.14589 30524 ft 406 kts 32°
2026-04-23 12:42 40.06932 27.16699 30029 ft 411 kts 32°
2026-04-23 12:43 40.09284 27.18859 29531 ft 413 kts 32°
2026-04-23 12:43 40.11644 27.21031 29030 ft 412 kts 32°
2026-04-23 12:43 40.13985 27.23191 28531 ft 411 kts 32°
2026-04-23 12:43 40.16282 27.25313 28039 ft 409 kts 32°
2026-04-23 12:44 40.18413 27.27279 27580 ft 408 kts 32°
2026-04-23 12:44 40.20732 27.29421 27079 ft 405 kts 32°
2026-04-23 12:44 40.23040 27.31552 26576 ft 403 kts 32°
2026-04-23 12:44 40.25327 27.33675 26075 ft 401 kts 33°
2026-04-23 12:45 40.27519 27.35853 25581 ft 399 kts 35°
2026-04-23 12:45 40.29681 27.38141 25079 ft 397 kts 37°
2026-04-23 12:45 40.31794 27.40473 24577 ft 395 kts 38°
2026-04-23 12:45 40.33855 27.42807 24079 ft 392 kts 38°
2026-04-23 12:46 40.35878 27.45137 23584 ft 390 kts 38°
2026-04-23 12:46 40.37932 27.47525 23076 ft 387 kts 39°
2026-04-23 12:46 40.39937 27.49870 22576 ft 385 kts 39°
2026-04-23 12:46 40.41913 27.52189 22078 ft 382 kts 39°
2026-04-23 12:47 40.43887 27.54507 21578 ft 380 kts 39°
2026-04-23 12:47 40.45844 27.56807 21079 ft 377 kts 39°
2026-04-23 12:47 40.47858 27.59173 20562 ft 374 kts 39°
2026-04-23 12:47 40.49500 27.61103 20138 ft 372 kts 39°
2026-04-23 12:48 40.51414 27.63370 19638 ft 370 kts 39°
2026-04-23 12:48 40.53330 27.65660 19133 ft 367 kts 39°
2026-04-23 12:48 40.55182 27.67890 18640 ft 365 kts 39°
2026-04-23 12:48 40.57050 27.70149 18138 ft 362 kts 39°
2026-04-23 12:49 40.58637 27.72073 17709 ft 360 kts 40°
2026-04-23 12:49 40.60459 27.74287 17184 ft 359 kts 40°
2026-04-23 12:49 40.62293 27.76520 16613 ft 358 kts 40°
2026-04-23 12:49 40.64106 27.78728 16045 ft 358 kts 40°
2026-04-23 12:50 40.65948 27.80975 15466 ft 358 kts 40°
2026-04-23 12:50 40.67742 27.83166 14902 ft 357 kts 40°
2026-04-23 12:50 40.69567 27.85398 14327 ft 357 kts 40°
2026-04-23 12:50 40.71389 27.87627 13751 ft 356 kts 40°
2026-04-23 12:51 40.73191 27.89834 13181 ft 355 kts 40°
2026-04-23 12:51 40.75005 27.92058 12605 ft 355 kts 40°
2026-04-23 12:51 40.76774 27.94228 12043 ft 354 kts 40°
2026-04-23 12:51 40.78614 27.96489 11456 ft 353 kts 40°
2026-04-23 12:52 40.80402 27.98720 10876 ft 353 kts 43°
2026-04-23 12:52 40.81732 28.01441 10269 ft 357 kts 66°
2026-04-23 12:52 40.82227 28.04609 9726 ft 355 kts 84°
2026-04-23 12:52 40.82186 28.07844 9166 ft 354 kts 95°
2026-04-23 12:53 40.81835 28.11071 8593 ft 353 kts 101°
2026-04-23 12:53 40.81317 28.14241 8019 ft 352 kts 104°
2026-04-23 12:53 40.80723 28.17340 7451 ft 351 kts 105°
2026-04-23 12:53 40.80084 28.20471 6872 ft 350 kts 106°
2026-04-23 12:54 40.79439 28.23581 6295 ft 349 kts 106°
2026-04-23 12:54 40.78818 28.26598 6037 ft 338 kts 105°
2026-04-23 12:54 40.78233 28.29495 5997 ft 320 kts 104°
2026-04-23 12:54 40.77681 28.32297 5988 ft 303 kts 104°
2026-04-23 12:55 40.77377 28.34989 5969 ft 287 kts 89°
2026-04-23 12:55 40.77598 28.37202 5998 ft 277 kts 76°
2026-04-23 12:55 40.78121 28.39446 6005 ft 278 kts 68°
2026-04-23 12:55 40.78902 28.41797 6001 ft 274 kts 62°
2026-04-23 12:56 40.79233 28.42654 5996 ft 270 kts 60°
2026-04-23 12:56 40.79532 28.43389 5997 ft 270 kts 59°
2026-04-23 12:57 40.80437 28.45556 6003 ft 276 kts 60°
2026-04-23 12:57 40.81289 28.47883 5786 ft 283 kts 62°
2026-04-23 12:57 40.82170 28.50201 5420 ft 279 kts 60°
2026-04-23 12:57 40.83073 28.52306 5376 ft 244 kts 57°
2026-04-23 12:58 40.83958 28.54188 5278 ft 240 kts 55°
2026-04-23 12:58 40.84862 28.56054 4902 ft 241 kts 55°
2026-04-23 12:58 40.85761 28.57905 4430 ft 237 kts 56°
2026-04-23 12:58 40.86523 28.59470 4037 ft 233 kts 56°
2026-04-23 12:59 40.87409 28.61297 3624 ft 230 kts 57°
2026-04-23 12:59 40.88262 28.63074 3270 ft 228 kts 58°
2026-04-23 12:59 40.89095 28.64838 2951 ft 225 kts 58°
2026-04-23 12:59 40.89895 28.66566 2624 ft 216 kts 58°
2026-04-23 13:00 40.90662 28.68231 2314 ft 209 kts 58°
2026-04-23 13:00 40.91339 28.69698 2058 ft 203 kts 58°
2026-04-23 13:00 40.92078 28.71294 1799 ft 200 kts 58°
2026-04-23 13:00 40.92781 28.72816 1546 ft 192 kts 58°
2026-04-23 13:01 40.93465 28.74294 1274 ft 184 kts 58°
2026-04-23 13:01 40.94121 28.75713 1046 ft 177 kts 58°
2026-04-23 13:01 40.94757 28.77089 836 ft 174 kts 58°
2026-04-23 13:01 40.95392 28.78462 618 ft 173 kts 58°
2026-04-23 13:02 40.96017 28.79812 400 ft 172 kts 58°
2026-04-23 13:02 40.96639 28.81159 184 ft 170 kts 58°
2026-04-23 13:02 40.97149 28.82261 175 ft 90 kts 58°
2026-04-23 13:02 40.97276 28.82528 175 ft 2 kts 42°
2026-04-23 13:03 40.97277 28.82529 175 ft 0 kts 41°
2026-04-23 13:03 40.97322 28.82573 175 ft 28 kts 36°
2026-04-23 13:03 40.97358 28.82606 175 ft 30 kts 32°
2026-04-23 13:04 40.97533 28.82739 175 ft 27 kts 15°
2026-04-23 13:04 40.97649 28.82748 175 ft 0 kts 338°
2026-04-23 13:05 40.97671 28.82720 175 ft 14 kts 289°
2026-04-23 13:05 40.97658 28.82588 175 ft 14 kts 258°
2026-04-23 13:05 40.97610 28.82537 175 ft 4 kts 164°